Flag for Myanmar Weather past 2 weeks in Yangon, Myanmar

Now
73 °F

Clear.


Feels Like: 75 °F
Forecast: 66 / 89 °F
Wind: 3 mph from Southwest

Location: Rangoon Airport

Current Time: Feb 1, 2015 at 1:09:49 AM

Latest Report: Feb 1, 2015 at 12:30 AM


Visibility: 4 mi

Pressure: 29.95 "Hg

Humidity: 74%

Dew point: 64 °F

Location of YangonLocation

Historic Weather in Yangon — Graph

°F

Yangon temperature yesterday

Maximum temperature yesterday: 91 °F (at 2:30 PM)
Minimum temperature yesterday: 70 °F (at 5:00 AM)
Average temperature yesterday: 80 °F

Past Weeks' High & Low Weather Summary

 TemperatureHumidityPressure
High91 °F (Jan 30, 2:00 PM)100% (Jan 25, 6:00 AM)30.12 "Hg (Jan 25, 6:00 AM)
Low63 °F (Jan 29, 7:00 AM)29% (Jan 24, 3:30 PM)29.83 "Hg (Jan 28, 3:00 PM)
Average78 °F63%29.97 "Hg
* Reported Jan 16 11:30 PM — Midnight between Jan 31 and Feb 1, Yangon, Weather by CustomWeather, © 2014

Note: Actual official high and low records may vary slightly from our data, if they occured in-between our weather recording intervals... More about our weather records

Advertising

Yangon weather history for previous 24 hours

 ConditionsComfort  
Time TempWeatherWind HumidityBarometerVisibility
12:00 AM
Feb 1
75 °FClear.3 mph65%29.98 "Hg4 mi
11:30 PM
Jan 31
75 °FClear.2 mph65%29.95 "Hg4 mi
11:00 PM75 °FClear.3 mph65%29.98 "Hg4 mi
10:30 PM77 °FClear.2 mph51%29.95 "Hg4 mi
10:00 PM77 °FClear.5 mph51%29.95 "Hg4 mi
9:30 PM79 °FClear.5 mph61%29.95 "Hg4 mi
9:00 PM79 °FClear.6 mph61%29.95 "Hg4 mi
8:30 PM79 °FClear.6 mph61%29.95 "Hg4 mi
8:00 PM81 °FClear.5 mph54%29.92 "Hg4 mi
7:30 PM81 °FClear.3 mph54%29.92 "Hg4 mi
7:00 PM82 °FClear.5 mph48%29.92 "Hg4 mi
6:30 PM84 °FClear.5 mph45%29.89 "Hg4 mi
6:00 PM86 °FPassing clouds.5 mph46%29.89 "Hg4 mi
5:30 PM90 °FSunny.5 mph38%29.89 "Hg5 mi
5:00 PM90 °FSunny.5 mph38%29.89 "Hg5 mi
4:30 PM91 °FSunny.6 mph38%29.89 "Hg6 mi
4:00 PM91 °FHot.6 mph38%29.89 "HgN/A
3:30 PM91 °FSunny.6 mph38%29.89 "Hg6 mi
3:00 PM91 °FSunny.7 mph38%29.89 "Hg6 mi
2:30 PM91 °FSunny.5 mph38%29.89 "Hg6 mi
2:00 PM90 °FSunny.3 mph38%29.92 "Hg6 mi
1:30 PM90 °FSunny.5 mph38%29.92 "Hg6 mi
12:30 PM88 °FSunny.6 mph43%29.98 "Hg5 mi
12:00 PM86 °FSunny.6 mph46%29.98 "Hg5 mi
11:30 AM86 °FSunny.7 mph46%30.01 "Hg5 mi
11:00 AM82 °FClear.7 mph58%30.01 "Hg5 mi
10:30 AM81 °FSnow. Cloudy.7 mph62%30.04 "Hg4 mi
9:00 AM72 °FSnow. Cloudy.3 mph78%30.01 "Hg5 mi
8:30 AM70 °FSnow. Fog.3 mph88%30.01 "Hg3 mi
8:00 AM70 °FSnow. Fog.3 mph88%30.01 "Hg3 mi
7:30 AM70 °FSnow. Fog.5 mph88%29.98 "Hg2 mi
7:00 AM70 °FSnow. Fog.No wind88%29.95 "Hg2 mi
6:30 AM70 °FSnow. Fog.No wind88%29.95 "Hg3 mi
6:00 AM70 °FSnow. Fog.3 mph88%29.95 "Hg3 mi
5:30 AM70 °FSnow. Overcast.3 mph88%29.95 "Hg4 mi
5:00 AM70 °FSnow. Overcast.6 mph88%29.95 "Hg4 mi
Weather by CustomWeather, © 2014

See weather overviewHow to use our weather pages